Akademik Korolev — UHQS — position and weather

sailwx.info

Track history (hours):
 
Tides and Currents Weather Stations Pressure Air Temp Water Temp Dewpoint Dewpoint Depression Visibility Wind Speed Wind Dir Waves Ship Positions

Oceanographic research ship Akademik Korolev (Russia)

Detailed information on ship capabilities available from University of Delaware's Ocean Information Center.

Last reported at 2017-Mar-25 20:33 UTC. Time now 2017-Mar-26 03:30 UTC.
Position N 35°57' W 005°22'.

Length 130 m; draft 9.2 m.

Type: Cargo ship. MMSI: 273386650.

Date/timePositionNaut miles runAvg speedWind from/ knotsBaromVisibWave heightAir tempDewpointWater temp
2017-Mar-25 20:33N 35°57' W 005°22'3 2.5
2017-Mar-25 19:33N 35°55' W 005°20'0 0.2
2017-Mar-25 18:33N 35°55' W 005°20'0 0.1
2017-Mar-25 17:33N 35°55' W 005°20'0 0.0
2017-Mar-25 16:33N 35°55' W 005°20'0 0.0
2017-Mar-25 15:33N 35°55' W 005°20'0 0.0
2017-Mar-25 14:33N 35°55' W 005°20'0 0.0
2017-Mar-25 13:33N 35°55' W 005°20'0 0.0
2017-Mar-25 12:33N 35°55' W 005°20'0 0.0
2017-Mar-25 11:33N 35°55' W 005°20'0 0.0
2017-Mar-25 10:33N 35°55' W 005°20'0 0.0
2017-Mar-25 09:33N 35°55' W 005°20'0 0.0
2017-Mar-25 08:33N 35°55' W 005°20'0 0.0
2017-Mar-25 07:33N 35°55' W 005°20'0 0.0
2017-Mar-25 06:33N 35°55' W 005°20'0 0.1
2017-Mar-25 05:33N 35°55' W 005°20'0 0.0
2017-Mar-25 04:33N 35°55' W 005°20'0 0.0
2017-Mar-25 03:33N 35°55' W 005°20'0 0.1
2017-Mar-25 02:33N 35°55' W 005°20'0 0.1
2017-Mar-25 01:33N 35°55' W 005°20'0 0.0
2017-Mar-25 00:33N 35°55' W 005°20'0 0.1
2017-Mar-24 23:33N 35°55' W 005°20'4 3.7
2017-Mar-24 22:33N 35°57' W 005°24'1212.2
2017-Mar-24 21:33N 35°54' W 005°39'219 9.1
2017-Mar-23 21:25N 37°39' W 009°39'24 8.5
2017-Mar-23 18:33N 37°31' W 009°10'6 6.0
2017-Mar-23 17:33N 37°31' W 009°03'1211.8
2017-Mar-23 16:32N 37°43' W 009°05'1211.9
2017-Mar-23 15:33N 37°54' W 009°08'1211.6
2017-Mar-23 14:33N 38°05' W 009°11'1010.2
2017-Mar-23 13:33N 38°16' W 009°11'1010.2
2017-Mar-23 12:33N 38°22' W 009°01'8 7.8
2017-Mar-23 11:29N 38°29' W 008°56'0 0.0
2017-Mar-23 10:32N 38°29' W 008°56'0 0.0
2017-Mar-23 09:26N 38°29' W 008°56'0 0.0
2017-Mar-23 08:32N 38°29' W 008°56'0 0.0
2017-Mar-23 07:32N 38°29' W 008°56'0 0.0
2017-Mar-23 06:32N 38°29' W 008°56'0 0.0
2017-Mar-23 05:29N 38°29' W 008°56'0 0.0
2017-Mar-23 04:26N 38°29' W 008°56'0 0.0
2017-Mar-23 03:32N 38°29' W 008°56'0 0.0
2017-Mar-23 02:32N 38°29' W 008°56'0 0.0
2017-Mar-23 01:32N 38°29' W 008°56'0 0.0
2017-Mar-23 00:32N 38°29' W 008°56'0 0.0
2017-Mar-22 23:32N 38°29' W 008°56'0 0.0
2017-Mar-22 22:26N 38°29' W 008°56'0 0.0
2017-Mar-22 21:32N 38°29' W 008°56'0 0.0
2017-Mar-22 20:32N 38°29' W 008°56'0 0.0
2017-Mar-22 19:32N 38°29' W 008°56'0 0.0
2017-Mar-22 18:32N 38°29' W 008°56'0 0.0
2017-Mar-22 17:32N 38°29' W 008°56'0 0.0
2017-Mar-22 16:32N 38°29' W 008°56'0 0.0
2017-Mar-22 15:32N 38°29' W 008°56'0 0.0
2017-Mar-22 14:20N 38°29' W 008°56'0 0.0
2017-Mar-22 13:26N 38°29' W 008°56'0 0.0
2017-Mar-22 12:32N 38°29' W 008°56'0 0.0
2017-Mar-22 11:32N 38°29' W 008°56'0 0.0
2017-Mar-22 10:32N 38°29' W 008°56'0 0.0
2017-Mar-22 09:29N 38°29' W 008°56'0 0.0
2017-Mar-22 08:32N 38°29' W 008°56'0 0.0
2017-Mar-22 07:32N 38°29' W 008°56'0 0.0
2017-Mar-22 06:32N 38°29' W 008°56'0 0.0
2017-Mar-22 05:29N 38°29' W 008°56'0 0.0
2017-Mar-22 04:32N 38°29' W 008°56'0 0.0
2017-Mar-22 03:29N 38°29' W 008°56'0 0.0
2017-Mar-22 02:17N 38°29' W 008°56'0 0.0
2017-Mar-22 01:29N 38°29' W 008°56'0 0.0
2017-Mar-22 00:32N 38°29' W 008°56'0 0.0
2017-Mar-21 23:32N 38°29' W 008°56'0 0.0
2017-Mar-21 22:32N 38°29' W 008°56'0 0.0
2017-Mar-21 21:29N 38°29' W 008°56'0 0.0
2017-Mar-21 20:32N 38°29' W 008°56'0 0.0
2017-Mar-21 19:32N 38°29' W 008°56'0 0.0
2017-Mar-21 18:29N 38°29' W 008°56'0 0.0
2017-Mar-21 17:29N 38°29' W 008°56'0 0.0
2017-Mar-21 16:32N 38°29' W 008°56'0 0.0
2017-Mar-21 15:32N 38°29' W 008°56'0 0.0
2017-Mar-21 14:32N 38°29' W 008°56'0 0.0
2017-Mar-21 13:32N 38°29' W 008°56'0 0.0
2017-Mar-21 12:32N 38°29' W 008°56'0 0.0
2017-Mar-21 11:32N 38°29' W 008°56'0 0.0
2017-Mar-21 10:32N 38°29' W 008°56'0 0.0
2017-Mar-21 09:32N 38°29' W 008°56'0 0.0
2017-Mar-21 08:32N 38°29' W 008°56'0 0.0
2017-Mar-21 07:32N 38°29' W 008°56'0 0.0
2017-Mar-21 06:32N 38°29' W 008°56'0 0.0
2017-Mar-21 05:32N 38°29' W 008°56'0 0.0
2017-Mar-21 04:32N 38°29' W 008°56'0 0.0
2017-Mar-21 03:32N 38°29' W 008°56'0 0.0
2017-Mar-21 02:32N 38°29' W 008°56'0 0.0
2017-Mar-21 01:32N 38°29' W 008°56'0 0.0
2017-Mar-21 00:32N 38°29' W 008°56'0 0.0
2017-Mar-20 23:26N 38°29' W 008°56'0 0.0
2017-Mar-20 22:32N 38°29' W 008°56'0 0.0
2017-Mar-20 20:20N 38°29' W 008°56'0 0.0
2017-Mar-20 19:29N 38°29' W 008°56'0 0.0
2017-Mar-20 18:17N 38°29' W 008°56'0 0.0
2017-Mar-20 17:32N 38°29' W 008°56'0 0.0
2017-Mar-20 16:32N 38°29' W 008°56'0 0.0
2017-Mar-20 14:23N 38°29' W 008°56'0 0.0
2017-Mar-20 12:32N 38°29' W 008°56'0 0.0
2017-Mar-20 11:23N 38°29' W 008°56'0 0.0
2017-Mar-20 10:29N 38°29' W 008°56'0 0.0
2017-Mar-20 09:32N 38°29' W 008°56'0 0.0
2017-Mar-20 08:29N 38°29' W 008°56'0 0.0
2017-Mar-20 07:32N 38°29' W 008°56'0 0.0
2017-Mar-20 06:32N 38°29' W 008°56'0 0.0
2017-Mar-20 05:32N 38°29' W 008°56'0 0.0
2017-Mar-20 04:32N 38°29' W 008°56'0 0.0
2017-Mar-20 03:31N 38°29' W 008°56'0 0.0
2017-Mar-20 02:31N 38°29' W 008°56'0 0.0
2017-Mar-20 01:28N 38°29' W 008°56'0 0.0
2017-Mar-20 00:31N 38°29' W 008°56'0 0.0
2017-Mar-19 23:31N 38°29' W 008°56'0 0.0
2017-Mar-19 22:31N 38°29' W 008°56'0 0.0
2017-Mar-19 21:31N 38°29' W 008°56'0 0.0
2017-Mar-19 20:31N 38°29' W 008°56'0 0.0
2017-Mar-19 19:31N 38°29' W 008°56'0 0.0
2017-Mar-19 18:31N 38°29' W 008°56'0 0.0
2017-Mar-19 17:31N 38°29' W 008°56'0 0.0
2017-Mar-19 16:31N 38°29' W 008°56'0 0.0
2017-Mar-19 15:19N 38°29' W 008°56'0 0.0
2017-Mar-19 14:31N 38°29' W 008°56'0 0.0
2017-Mar-19 13:28N 38°29' W 008°56'0 0.0
2017-Mar-19 12:31N 38°29' W 008°56'0 0.0
2017-Mar-19 11:31N 38°29' W 008°56'0 0.0
2017-Mar-19 10:28N 38°29' W 008°56'0 0.0
2017-Mar-19 09:31N 38°29' W 008°56'0 0.0
2017-Mar-19 08:31N 38°29' W 008°56'0 0.0
2017-Mar-19 07:31N 38°29' W 008°56'0 0.0
2017-Mar-19 06:31N 38°29' W 008°56'0 0.0
2017-Mar-19 05:31N 38°29' W 008°56'0 0.0
2017-Mar-19 04:31N 38°29' W 008°56'0 0.0
2017-Mar-19 03:31N 38°29' W 008°56'0 0.0
2017-Mar-19 02:31N 38°29' W 008°56'0 0.0
2017-Mar-19 01:31N 38°29' W 008°56'0 0.0
2017-Mar-19 00:25N 38°29' W 008°56'0 0.0
2017-Mar-18 23:28N 38°29' W 008°56'0 0.0
2017-Mar-18 22:31N 38°29' W 008°56'0 0.0
2017-Mar-18 21:31N 38°29' W 008°56'0 0.0
2017-Mar-18 20:31N 38°29' W 008°56'0 0.0
2017-Mar-18 19:31N 38°29' W 008°56'0 0.0
2017-Mar-18 18:31N 38°29' W 008°56'0 0.0
2017-Mar-18 17:31N 38°29' W 008°56'0 0.0
2017-Mar-18 16:31N 38°29' W 008°56'0 0.0
2017-Mar-18 15:31N 38°29' W 008°56'0 0.0
2017-Mar-18 14:28N 38°29' W 008°56'0 0.0
2017-Mar-18 13:31N 38°29' W 008°56'0 0.0
2017-Mar-18 12:31N 38°29' W 008°56'0 0.0
2017-Mar-18 11:31N 38°29' W 008°56'5 5.0
2017-Mar-18 10:33N 38°26' W 008°60'10 9.5
2017-Mar-18 09:33N 38°18' W 009°07'6 5.8
2017-Mar-18 08:33N 38°13' W 009°06'10 9.7
2017-Mar-18 07:33N 38°13' W 009°19'5 5.3
2017-Mar-18 06:33N 38°08' W 009°21'7 6.9
2017-Mar-18 05:33N 38°01' W 009°20'7 6.7
2017-Mar-18 04:33N 37°54' W 009°19'7 6.5
2017-Mar-18 03:33N 37°48' W 009°18'7 6.8
2017-Mar-18 02:33N 37°41' W 009°16'7 6.7
2017-Mar-18 01:33N 37°34' W 009°16'7 6.6
2017-Mar-18 00:33N 37°28' W 009°16'7 6.6
2017-Mar-17 23:33N 37°21' W 009°14'6 6.4
2017-Mar-17 22:33N 37°15' W 009°13'12 8.4
2017-Mar-17 21:10N 37°24' W 009°22'8 8.1
2017-Mar-17 20:10N 37°16' W 009°26'  
Track history (hours):
 
Tides and Currents Weather Stations Pressure Air Temp Water Temp Dewpoint Dewpoint Depression Visibility Wind Speed Wind Dir Waves Ship Positions

Oceanographic research ship Akademik Korolev (Russia)

Detailed information on ship capabilities available from University of Delaware's Ocean Information Center.

Last reported at 2017-Mar-25 20:33 UTC. Time now 2017-Mar-26 03:30 UTC.
Position N 35°57' W 005°22'.

Length 130 m; draft 9.2 m.

Type: Cargo ship. MMSI: 273386650.

Date/timePositionNaut miles runAvg speedWind from/ knotsBaromVisibWave heightAir tempDewpointWater temp
2017-Mar-25 20:33N 35°57' W 005°22'3 2.5
2017-Mar-25 19:33N 35°55' W 005°20'0 0.2
2017-Mar-25 18:33N 35°55' W 005°20'0 0.1
2017-Mar-25 17:33N 35°55' W 005°20'0 0.0
2017-Mar-25 16:33N 35°55' W 005°20'0 0.0
2017-Mar-25 15:33N 35°55' W 005°20'0 0.0
2017-Mar-25 14:33N 35°55' W 005°20'0 0.0
2017-Mar-25 13:33N 35°55' W 005°20'0 0.0
2017-Mar-25 12:33N 35°55' W 005°20'0 0.0
2017-Mar-25 11:33N 35°55' W 005°20'0 0.0
2017-Mar-25 10:33N 35°55' W 005°20'0 0.0
2017-Mar-25 09:33N 35°55' W 005°20'0 0.0
2017-Mar-25 08:33N 35°55' W 005°20'0 0.0
2017-Mar-25 07:33N 35°55' W 005°20'0 0.0
2017-Mar-25 06:33N 35°55' W 005°20'0 0.1
2017-Mar-25 05:33N 35°55' W 005°20'0 0.0
2017-Mar-25 04:33N 35°55' W 005°20'0 0.0
2017-Mar-25 03:33N 35°55' W 005°20'0 0.1
2017-Mar-25 02:33N 35°55' W 005°20'0 0.1
2017-Mar-25 01:33N 35°55' W 005°20'0 0.0
2017-Mar-25 00:33N 35°55' W 005°20'0 0.1
2017-Mar-24 23:33N 35°55' W 005°20'4 3.7
2017-Mar-24 22:33N 35°57' W 005°24'1212.2
2017-Mar-24 21:33N 35°54' W 005°39'219 9.1
2017-Mar-23 21:25N 37°39' W 009°39'24 8.5
2017-Mar-23 18:33N 37°31' W 009°10'6 6.0
2017-Mar-23 17:33N 37°31' W 009°03'1211.8
2017-Mar-23 16:32N 37°43' W 009°05'1211.9
2017-Mar-23 15:33N 37°54' W 009°08'1211.6
2017-Mar-23 14:33N 38°05' W 009°11'1010.2
2017-Mar-23 13:33N 38°16' W 009°11'1010.2
2017-Mar-23 12:33N 38°22' W 009°01'8 7.8
2017-Mar-23 11:29N 38°29' W 008°56'0 0.0
2017-Mar-23 10:32N 38°29' W 008°56'0 0.0
2017-Mar-23 09:26N 38°29' W 008°56'0 0.0
2017-Mar-23 08:32N 38°29' W 008°56'0 0.0
2017-Mar-23 07:32N 38°29' W 008°56'0 0.0
2017-Mar-23 06:32N 38°29' W 008°56'0 0.0
2017-Mar-23 05:29N 38°29' W 008°56'0 0.0
2017-Mar-23 04:26N 38°29' W 008°56'0 0.0
2017-Mar-23 03:32N 38°29' W 008°56'0 0.0
2017-Mar-23 02:32N 38°29' W 008°56'0 0.0
2017-Mar-23 01:32N 38°29' W 008°56'0 0.0
2017-Mar-23 00:32N 38°29' W 008°56'0 0.0
2017-Mar-22 23:32N 38°29' W 008°56'0 0.0
2017-Mar-22 22:26N 38°29' W 008°56'0 0.0
2017-Mar-22 21:32N 38°29' W 008°56'0 0.0
2017-Mar-22 20:32N 38°29' W 008°56'0 0.0
2017-Mar-22 19:32N 38°29' W 008°56'0 0.0
2017-Mar-22 18:32N 38°29' W 008°56'0 0.0
2017-Mar-22 17:32N 38°29' W 008°56'0 0.0
2017-Mar-22 16:32N 38°29' W 008°56'0 0.0
2017-Mar-22 15:32N 38°29' W 008°56'0 0.0
2017-Mar-22 14:20N 38°29' W 008°56'0 0.0
2017-Mar-22 13:26N 38°29' W 008°56'0 0.0
2017-Mar-22 12:32N 38°29' W 008°56'0 0.0
2017-Mar-22 11:32N 38°29' W 008°56'0 0.0
2017-Mar-22 10:32N 38°29' W 008°56'0 0.0
2017-Mar-22 09:29N 38°29' W 008°56'0 0.0
2017-Mar-22 08:32N 38°29' W 008°56'0 0.0
2017-Mar-22 07:32N 38°29' W 008°56'0 0.0
2017-Mar-22 06:32N 38°29' W 008°56'0 0.0
2017-Mar-22 05:29N 38°29' W 008°56'0 0.0
2017-Mar-22 04:32N 38°29' W 008°56'0 0.0
2017-Mar-22 03:29N 38°29' W 008°56'0 0.0
2017-Mar-22 02:17N 38°29' W 008°56'0 0.0
2017-Mar-22 01:29N 38°29' W 008°56'0 0.0
2017-Mar-22 00:32N 38°29' W 008°56'0 0.0
2017-Mar-21 23:32N 38°29' W 008°56'0 0.0
2017-Mar-21 22:32N 38°29' W 008°56'0 0.0
2017-Mar-21 21:29N 38°29' W 008°56'0 0.0
2017-Mar-21 20:32N 38°29' W 008°56'0 0.0
2017-Mar-21 19:32N 38°29' W 008°56'0 0.0
2017-Mar-21 18:29N 38°29' W 008°56'0 0.0
2017-Mar-21 17:29N 38°29' W 008°56'0 0.0
2017-Mar-21 16:32N 38°29' W 008°56'0 0.0
2017-Mar-21 15:32N 38°29' W 008°56'0 0.0
2017-Mar-21 14:32N 38°29' W 008°56'0 0.0
2017-Mar-21 13:32N 38°29' W 008°56'0 0.0
2017-Mar-21 12:32N 38°29' W 008°56'0 0.0
2017-Mar-21 11:32N 38°29' W 008°56'0 0.0
2017-Mar-21 10:32N 38°29' W 008°56'0 0.0
2017-Mar-21 09:32N 38°29' W 008°56'0 0.0
2017-Mar-21 08:32N 38°29' W 008°56'0 0.0
2017-Mar-21 07:32N 38°29' W 008°56'0 0.0
2017-Mar-21 06:32N 38°29' W 008°56'0 0.0
2017-Mar-21 05:32N 38°29' W 008°56'0 0.0
2017-Mar-21 04:32N 38°29' W 008°56'0 0.0
2017-Mar-21 03:32N 38°29' W 008°56'0 0.0
2017-Mar-21 02:32N 38°29' W 008°56'0 0.0
2017-Mar-21 01:32N 38°29' W 008°56'0 0.0
2017-Mar-21 00:32N 38°29' W 008°56'0 0.0
2017-Mar-20 23:26N 38°29' W 008°56'0 0.0
2017-Mar-20 22:32N 38°29' W 008°56'0 0.0
2017-Mar-20 20:20N 38°29' W 008°56'0 0.0
2017-Mar-20 19:29N 38°29' W 008°56'0 0.0
2017-Mar-20 18:17N 38°29' W 008°56'0 0.0
2017-Mar-20 17:32N 38°29' W 008°56'0 0.0
2017-Mar-20 16:32N 38°29' W 008°56'0 0.0
2017-Mar-20 14:23N 38°29' W 008°56'0 0.0
2017-Mar-20 12:32N 38°29' W 008°56'0 0.0
2017-Mar-20 11:23N 38°29' W 008°56'0 0.0
2017-Mar-20 10:29N 38°29' W 008°56'0 0.0
2017-Mar-20 09:32N 38°29' W 008°56'0 0.0
2017-Mar-20 08:29N 38°29' W 008°56'0 0.0
2017-Mar-20 07:32N 38°29' W 008°56'0 0.0
2017-Mar-20 06:32N 38°29' W 008°56'0 0.0
2017-Mar-20 05:32N 38°29' W 008°56'0 0.0
2017-Mar-20 04:32N 38°29' W 008°56'0 0.0
2017-Mar-20 03:31N 38°29' W 008°56'0 0.0
2017-Mar-20 02:31N 38°29' W 008°56'0 0.0
2017-Mar-20 01:28N 38°29' W 008°56'0 0.0
2017-Mar-20 00:31N 38°29' W 008°56'0 0.0
2017-Mar-19 23:31N 38°29' W 008°56'0 0.0
2017-Mar-19 22:31N 38°29' W 008°56'0 0.0
2017-Mar-19 21:31N 38°29' W 008°56'0 0.0
2017-Mar-19 20:31N 38°29' W 008°56'0 0.0
2017-Mar-19 19:31N 38°29' W 008°56'0 0.0
2017-Mar-19 18:31N 38°29' W 008°56'0 0.0
2017-Mar-19 17:31N 38°29' W 008°56'0 0.0
2017-Mar-19 16:31N 38°29' W 008°56'0 0.0
2017-Mar-19 15:19N 38°29' W 008°56'0 0.0
2017-Mar-19 14:31N 38°29' W 008°56'0 0.0
2017-Mar-19 13:28N 38°29' W 008°56'0 0.0
2017-Mar-19 12:31N 38°29' W 008°56'0 0.0
2017-Mar-19 11:31N 38°29' W 008°56'0 0.0
2017-Mar-19 10:28N 38°29' W 008°56'0 0.0
2017-Mar-19 09:31N 38°29' W 008°56'0 0.0
2017-Mar-19 08:31N 38°29' W 008°56'0 0.0
2017-Mar-19 07:31N 38°29' W 008°56'0 0.0
2017-Mar-19 06:31N 38°29' W 008°56'0 0.0
2017-Mar-19 05:31N 38°29' W 008°56'0 0.0
2017-Mar-19 04:31N 38°29' W 008°56'0 0.0
2017-Mar-19 03:31N 38°29' W 008°56'0 0.0
2017-Mar-19 02:31N 38°29' W 008°56'0 0.0
2017-Mar-19 01:31N 38°29' W 008°56'0 0.0
2017-Mar-19 00:25N 38°29' W 008°56'0 0.0
2017-Mar-18 23:28N 38°29' W 008°56'0 0.0
2017-Mar-18 22:31N 38°29' W 008°56'0 0.0
2017-Mar-18 21:31N 38°29' W 008°56'0 0.0
2017-Mar-18 20:31N 38°29' W 008°56'0 0.0
2017-Mar-18 19:31N 38°29' W 008°56'0 0.0
2017-Mar-18 18:31N 38°29' W 008°56'0 0.0
2017-Mar-18 17:31N 38°29' W 008°56'0 0.0
2017-Mar-18 16:31N 38°29' W 008°56'0 0.0
2017-Mar-18 15:31N 38°29' W 008°56'0 0.0
2017-Mar-18 14:28N 38°29' W 008°56'0 0.0
2017-Mar-18 13:31N 38°29' W 008°56'0 0.0
2017-Mar-18 12:31N 38°29' W 008°56'0 0.0
2017-Mar-18 11:31N 38°29' W 008°56'5 5.0
2017-Mar-18 10:33N 38°26' W 008°60'10 9.5
2017-Mar-18 09:33N 38°18' W 009°07'6 5.8
2017-Mar-18 08:33N 38°13' W 009°06'10 9.7
2017-Mar-18 07:33N 38°13' W 009°19'5 5.3
2017-Mar-18 06:33N 38°08' W 009°21'7 6.9
2017-Mar-18 05:33N 38°01' W 009°20'7 6.7
2017-Mar-18 04:33N 37°54' W 009°19'7 6.5
2017-Mar-18 03:33N 37°48' W 009°18'7 6.8
2017-Mar-18 02:33N 37°41' W 009°16'7 6.7
2017-Mar-18 01:33N 37°34' W 009°16'7 6.6
2017-Mar-18 00:33N 37°28' W 009°16'7 6.6
2017-Mar-17 23:33N 37°21' W 009°14'6 6.4
2017-Mar-17 22:33N 37°15' W 009°13'12 8.4
2017-Mar-17 21:10N 37°24' W 009°22'8 8.1
2017-Mar-17 20:10N 37°16' W 009°26'  

Dump ship's entire track history